TimeCST,TemperatureF,Dew PointF,Humidity,Sea Level PressureIn,VisibilityMPH,Wind Direction,Wind SpeedMPH,Gust SpeedMPH,PrecipitationIn,Events,Conditions,WindDirDegrees,DateUTC
12:53 AM,24.1,14.0,65,30.33,10.0,Calm,Calm,-,N/A,,Clear,0,2013-01-22 06:53:00
1:53 AM,23.0,15.1,72,30.32,10.0,Calm,Calm,-,N/A,,Clear,0,2013-01-22 07:53:00
2:53 AM,21.9,15.1,75,30.32,10.0,Calm,Calm,-,N/A,,Clear,0,2013-01-22 08:53:00
3:53 AM,18.0,14.0,84,30.31,10.0,South,3.5,-,N/A,,Clear,190,2013-01-22 09:53:00
4:53 AM,17.1,14.0,88,30.33,10.0,Calm,Calm,-,N/A,,Clear,0,2013-01-22 10:53:00
5:53 AM,19.0,14.0,81,30.32,10.0,Calm,Calm,-,N/A,,Clear,0,2013-01-22 11:53:00
6:53 AM,16.0,12.9,88,30.34,10.0,South,3.5,-,N/A,,Clear,180,2013-01-22 12:53:00
7:53 AM,18.0,15.1,88,30.35,10.0,South,3.5,-,N/A,,Clear,170,2013-01-22 13:53:00
8:53 AM,23.0,18.0,81,30.35,10.0,Calm,Calm,-,N/A,,Clear,0,2013-01-22 14:53:00
9:53 AM,28.9,21.0,72,30.35,10.0,Calm,Calm,-,N/A,,Overcast,0,2013-01-22 15:53:00
10:53 AM,36.0,19.9,52,30.31,10.0,South,11.5,-,N/A,,Overcast,190,2013-01-22 16:53:00
11:53 AM,37.9,19.9,48,30.33,10.0,South,10.4,-,N/A,,Mostly Cloudy,190,2013-01-22 17:53:00
12:53 PM,42.1,21.0,43,30.30,10.0,Calm,Calm,-,N/A,,Clear,0,2013-01-22 18:53:00
1:53 PM,43.0,21.9,43,30.27,10.0,Variable,4.6,-,N/A,,Clear,0,2013-01-22 19:53:00
2:53 PM,45.0,23.0,42,30.26,10.0,SSW,8.1,-,N/A,,Clear,210,2013-01-22 20:53:00
3:53 PM,46.0,21.9,39,30.26,10.0,SSW,10.4,-,N/A,,Partly Cloudy,200,2013-01-22 21:53:00
4:53 PM,43.0,21.9,43,30.26,10.0,South,9.2,-,N/A,,Clear,180,2013-01-22 22:53:00
5:53 PM,36.0,21.9,57,30.26,10.0,South,5.8,-,N/A,,Clear,170,2013-01-22 23:53:00
6:53 PM,30.9,21.0,67,30.27,10.0,Calm,Calm,-,N/A,,Clear,0,2013-01-23 00:53:00
7:53 PM,27.0,19.9,75,30.27,10.0,Calm,Calm,-,N/A,,Clear,0,2013-01-23 01:53:00
8:53 PM,27.0,19.9,75,30.28,10.0,Calm,Calm,-,N/A,,Clear,0,2013-01-23 02:53:00
9:53 PM,25.0,19.0,78,30.29,10.0,Calm,Calm,-,N/A,,Clear,0,2013-01-23 03:53:00
10:53 PM,30.9,21.0,67,30.28,10.0,South,4.6,-,N/A,,Clear,180,2013-01-23 04:53:00
11:53 PM,23.0,19.0,85,30.29,10.0,Calm,Calm,-,N/A,,Clear,0,2013-01-23 05:53:00